This demonstration page uses our WeatherBlox Daily Observations layout. Learn more.

Left ArrowRight Arrow

41.55636, -103.73856

Hourly Observations for May 23, 2020

Temp ( °F °C ) Dew Point ( °F °C ) Humidity (%) Winds ( mph kmh ) Pressure ( in mb ) Visibility ( mi km ) Precip ( " mm )
12:58 am 00:58 Clear 73 22.6 38 3.6 29 29 SE 23 37 29.68 1005 10 16 N/A
1:58 am 01:58 Clear 68 20.1 39 3.8 34 34 SE 18 30 29.69 1005 10 16 N/A
2:58 am 02:58 Clear 64 17.6 42 5.7 46 46 ESE 12 19 29.69 1006 10 16 N/A
3:59 am 03:59 Mostly Cloudy 64 17.7 42 5.8 46 46 SSE 26 43 29.70 1006 10 16 N/A
4:58 am 04:58 Mostly Cloudy 63 17.3 40 4.6 43 43 SSE 33 54 29.67 1005 10 16 N/A
5:58 am 05:58 Mostly Cloudy 61 16.3 47 8.1 59 59 SSE 26 43 29.66 1005 10 16 N/A
6:58 am 06:58 Mostly Cloudy 60 15.4 49 9.2 67 67 SSE 25 41 29.66 1005 10 16 N/A
7:58 am 07:58 Clear 58 14.4 49 9.7 74 74 S 23 37 29.66 1005 10 16 N/A
8:58 am 08:58 Mostly Cloudy 56 13.4 49 9.7 78 78 ENE 7 11 29.68 1005 10 16 N/A
9:58 am 09:58 Clear 58 14.2 49 9.6 74 74 S 22 35 29.64 1004 10 16 N/A
10:58 am 10:58 Clear 56 13.5 49 9.4 76 76 S 22 35 29.64 1004 10 16 N/A
11:58 am 11:58 Sunny 55 12.6 49 9.5 82 82 S 21 33 29.65 1004 10 16 N/A
12:58 pm 12:58 Sunny 55 12.8 50 9.8 82 82 S 21 33 29.66 1004 10 16 N/A
1:58 pm 13:58 Partly Cloudy 58 14.5 50 10.2 76 76 S 20 31 29.67 1005 10 16 N/A
2:58 pm 14:58 Mostly Cloudy 59 15.1 50 10.2 73 73 S 18 30 29.70 1006 10 16 N/A
3:58 pm 15:58 Mostly Sunny 63 17.3 50 10.2 63 63 SSW 18 30 29.67 1005 10 16 N/A
4:58 pm 16:58 Sunny 67 19.4 51 10.7 57 57 SSW 12 19 29.65 1004 10 16 N/A
5:58 pm 17:58 Sunny 71 21.4 49 9.4 46 46 SSE 3 6 29.63 1003 10 16 N/A
6:58 pm 18:58 Hazy 74 23.3 45 7.2 36 36 NNE 9 15 29.61 1003 6 10 N/A
7:58 pm 19:58 Sunny 75 24.1 44 6.4 32 32 NE 7 11 29.60 1002 10 16 N/A
8:58 pm 20:58 Sunny 75 23.7 46 7.5 35 35 E 12 19 29.59 1002 10 16 N/A
9:58 pm 21:58 Mostly Cloudy 68 20.2 48 8.7 48 48 NNE 14 22 29.59 1002 8 13 N/A
10:58 pm 22:58 Windy with Rain Showers Likely 66 19.1 39 4 37 37 N 21 33 29.62 1003 10 16 N/A
11:58 pm 23:58 Cloudy with Showers 62 16.7 43 6.2 50 50 N 10 17 29.70 1006 10 16 0.03 0.76

Powered by AerisWeather